Plainview, TX

5:44 AM CST on February 28, 2017 (GMT -0600)
Hale County

Weather History for KPVW - January, 2012

Change the Weather History Date:

Monday, January 16, 2012

  Actual Average Record
Temperature  
Mean Temperature 55 °F -  
Max Temperature 69 °F 54 °F 76 °F (1914)
Min Temperature 41 °F 25 °F 1 °F (1964)
Degree Days  
Heating Degree Days 10    
Growing Degree Days 5 (Base 50)    
Moisture  
Dew Point 33 °F    
Average Humidity 47    
Maximum Humidity 66    
Minimum Humidity 25    
Precipitation  
Precipitation 0.00 in - - ()
Sea Level Pressure  
Sea Level Pressure 29.88 in    
Wind  
Wind Speed 17 mph (WSW)    
Max Wind Speed 40 mph    
Max Gust Speed 53 mph    
Visibility 10 miles    
Events Rain    
Averages and records for this station are not official NWS values.
T = Trace of Precipitation, MM = Missing Value Source: NWS Daily Summary

Daily Weather History Graph

Daily Weather History Graph

Search for Another Location

Airport or City:

Trip Planner

Search our weather history database for the weather conditions in past years. The results will help you decide how hot, cold, wet, or windy it might be!

Date:

Astronomy

Jan. 16, 2012 Rise Set
Actual Time 7:52 AM CST 6:00 PM CST
Civil Twilight 7:25 AM CST 6:28 PM CST
Nautical Twilight 6:54 AM CST 6:58 PM CST
Astronomical Twilight 6:24 AM CST 7:29 PM CST
Moon 1:08 AM CST (1/16) 12:12 PM CST (1/16)
Length of Visible Light 11h 02m
Length of Day
10h 08m
Last Quarter, 46% of the Moon is Illuminated
Jan 16
Last Quarter
Jan 23
New
Jan 30
First Quarter
Feb 7
Full
Feb 14
Last Quarter

Hourly Weather History & Observations

Time (CST) Temp. Windchill Dew Point Humidity Pressure Visibility Wind Dir Wind Speed Gust Speed Precip Events Conditions
12:15 AM 46.4 °F 39.8 °F 28.4 °F 50% 29.95 in 10.0 mi WSW 16.1 mph - N/A   Clear
2:15 AM 42.8 °F 37.0 °F 28.4 °F 57% 29.93 in 10.0 mi WSW 10.4 mph - N/A   Clear
2:35 AM 42.8 °F 37.0 °F 28.4 °F 57% 29.93 in 10.0 mi West 10.4 mph - N/A   Clear
2:55 AM 42.8 °F 36.2 °F 30.2 °F 61% 29.93 in 10.0 mi WSW 12.7 mph - N/A   Clear
3:15 AM 42.8 °F 35.8 °F 30.2 °F 61% 29.93 in 10.0 mi WSW 13.8 mph - N/A   Clear
3:35 AM 42.8 °F 37.0 °F 30.2 °F 61% 29.92 in 10.0 mi WSW 10.4 mph - N/A   Clear
3:55 AM 41.0 °F 34.3 °F 30.2 °F 65% 29.91 in 10.0 mi WSW 11.5 mph - N/A   Clear
4:15 AM 41.0 °F 34.7 °F 30.2 °F 65% 29.91 in 10.0 mi SW 10.4 mph - N/A   Clear
4:35 AM 41.0 °F 33.9 °F 30.2 °F 65% 29.91 in 10.0 mi SW 12.7 mph - N/A   Clear
4:55 AM 42.8 °F 36.6 °F 32.0 °F 66% 29.91 in 10.0 mi SW 11.5 mph - N/A   Clear
5:15 AM 42.8 °F 36.2 °F 32.0 °F 66% 29.91 in 10.0 mi WSW 12.7 mph - N/A   Clear
5:35 AM 44.6 °F 38.4 °F 32.0 °F 61% 29.90 in 10.0 mi WSW 12.7 mph - N/A   Clear
5:55 AM 46.4 °F 40.7 °F 33.8 °F 62% 29.90 in 10.0 mi WSW 12.7 mph - N/A   Clear
6:15 AM 46.4 °F 40.1 °F 33.8 °F 62% 29.90 in 10.0 mi WSW 15.0 mph - N/A   Clear
6:35 AM 46.4 °F 40.4 °F 33.8 °F 62% 29.90 in 10.0 mi WSW 13.8 mph - N/A   Clear
6:55 AM 50.0 °F - 35.6 °F 58% 29.91 in 10.0 mi WSW 16.1 mph - N/A   Clear
7:15 AM 46.4 °F 40.7 °F 33.8 °F 62% 29.91 in 10.0 mi SW 12.7 mph - N/A   Clear
7:35 AM 46.4 °F 40.7 °F 33.8 °F 62% 29.91 in 10.0 mi WSW 12.7 mph - N/A   Clear
7:55 AM 46.4 °F 40.1 °F 33.8 °F 62% 29.91 in 10.0 mi SW 15.0 mph - N/A   Clear
8:15 AM 50.0 °F - 35.6 °F 58% 29.91 in 10.0 mi SW 12.7 mph - N/A   Clear
8:35 AM 50.0 °F - 35.6 °F 58% 29.91 in 10.0 mi SW 12.7 mph - N/A   Clear
8:55 AM 50.0 °F - 33.8 °F 54% 29.91 in 10.0 mi SW 13.8 mph - N/A   Clear
9:15 AM 50.0 °F - 35.6 °F 58% 29.92 in 10.0 mi SW 13.8 mph - N/A   Clear
9:35 AM 50.0 °F - 35.6 °F 58% 29.91 in 10.0 mi SW 12.7 mph - N/A   Clear
9:55 AM 53.6 °F - 35.6 °F 51% 29.91 in 10.0 mi SW 17.3 mph 20.7 mph N/A   Clear
10:15 AM 55.4 °F - 35.6 °F 47% 29.91 in 10.0 mi SW 23.0 mph 26.5 mph N/A   Clear
10:35 AM 59.0 °F - 33.8 °F 39% 29.91 in 10.0 mi SW 23.0 mph 28.8 mph N/A   Clear
10:55 AM 60.8 °F - 33.8 °F 36% 29.91 in 10.0 mi SW 23.0 mph 29.9 mph N/A   Clear
11:15 AM 64.4 °F - 33.8 °F 32% 29.91 in 10.0 mi WSW 28.8 mph 35.7 mph N/A   Clear
11:35 AM 68.0 °F - 33.8 °F 28% 29.90 in 10.0 mi WSW 32.2 mph 38.0 mph N/A   Clear
11:55 AM 69.8 °F - 33.8 °F 27% 29.89 in 10.0 mi SW 29.9 mph 39.1 mph N/A   Clear
12:15 PM 69.8 °F - 33.8 °F 27% 29.87 in 10.0 mi WSW 40.3 mph 47.2 mph N/A   Clear
12:35 PM 69.8 °F - 32.0 °F 25% 29.85 in 10.0 mi WSW 38.0 mph 43.7 mph N/A   Clear
12:55 PM 69.8 °F - 32.0 °F 25% 29.85 in 10.0 mi WSW 39.1 mph 52.9 mph N/A   Clear
1:15 PM 69.8 °F - 32.0 °F 25% 29.84 in 10.0 mi WSW 33.4 mph 44.9 mph N/A   Clear
1:35 PM 69.8 °F - 32.0 °F 25% 29.83 in 10.0 mi WSW 35.7 mph 43.7 mph N/A   Clear
2:15 PM 69.8 °F - 32.0 °F 25% 29.81 in 10.0 mi WSW 33.4 mph 43.7 mph N/A   Clear
2:35 PM 69.8 °F - 32.0 °F 25% 29.80 in 10.0 mi WSW 34.5 mph 44.9 mph N/A   Scattered Clouds
2:55 PM 69.8 °F - 32.0 °F 25% 29.80 in 10.0 mi WSW 34.5 mph 47.2 mph N/A   Scattered Clouds
3:15 PM 69.8 °F - 32.0 °F 25% 29.79 in 10.0 mi WSW 33.4 mph 40.3 mph N/A   Scattered Clouds
3:35 PM 69.8 °F - 33.8 °F 27% 29.79 in 10.0 mi West 23.0 mph 36.8 mph N/A   Scattered Clouds
3:55 PM 69.8 °F - 33.8 °F 27% 29.79 in 10.0 mi WSW 26.5 mph 35.7 mph N/A   Scattered Clouds
4:15 PM 69.8 °F - 33.8 °F 27% 29.80 in 10.0 mi West 28.8 mph 35.7 mph N/A   Mostly Cloudy
4:35 PM 59.0 °F - 41.0 °F 51% 29.80 in 7.0 mi WSW 19.6 mph 46.0 mph N/A Rain Light Rain
4:55 PM 59.0 °F - 41.0 °F 51% 29.80 in 10.0 mi WSW 17.3 mph 23.0 mph N/A   Scattered Clouds
5:15 PM 60.8 °F - 37.4 °F 42% 29.81 in 10.0 mi WSW 19.6 mph - N/A   Scattered Clouds
5:35 PM 60.8 °F - 37.4 °F 42% 29.80 in 10.0 mi WSW 15.0 mph - N/A   Mostly Cloudy
5:55 PM 60.8 °F - 35.6 °F 39% 29.80 in 10.0 mi SW 20.7 mph 29.9 mph N/A   Scattered Clouds
6:15 PM 60.8 °F - 33.8 °F 36% 29.81 in 10.0 mi SW 20.7 mph 27.6 mph N/A   Clear
6:35 PM 59.0 °F - 33.8 °F 39% 29.81 in 10.0 mi SW 20.7 mph 26.5 mph N/A   Clear
6:55 PM 59.0 °F - 33.8 °F 39% 29.82 in 10.0 mi SW 18.4 mph - N/A   Clear
7:15 PM 55.4 °F - 33.8 °F 44% 29.82 in 10.0 mi SW 13.8 mph - N/A   Clear
7:35 PM 55.4 °F - 35.6 °F 47% 29.82 in 10.0 mi SW 13.8 mph - N/A   Clear
7:55 PM 55.4 °F - 33.8 °F 44% 29.83 in 10.0 mi SW 17.3 mph - N/A   Clear
8:15 PM 55.4 °F - 33.8 °F 44% 29.83 in 10.0 mi SW 18.4 mph - N/A   Clear
8:35 PM 55.4 °F - 33.8 °F 44% 29.84 in 10.0 mi SW 17.3 mph 23.0 mph N/A   Clear
8:55 PM 53.6 °F - 33.8 °F 47% 29.84 in 10.0 mi WSW 18.4 mph 23.0 mph N/A   Clear
9:15 PM 53.6 °F - 33.8 °F 47% 29.85 in 10.0 mi WSW 17.3 mph - N/A   Clear
9:35 PM 53.6 °F - 35.6 °F 51% 29.86 in 10.0 mi WSW 16.1 mph - N/A   Clear
9:55 PM 53.6 °F - 35.6 °F 51% 29.86 in 10.0 mi WSW 18.4 mph - N/A   Clear
10:15 PM 53.6 °F - 35.6 °F 51% 29.88 in 10.0 mi West 15.0 mph - N/A   Clear
10:35 PM 50.0 °F - 33.8 °F 54% 29.89 in 10.0 mi West 11.5 mph - N/A   Clear
11:15 PM 44.6 °F 37.8 °F 32.0 °F 61% 29.92 in 10.0 mi NW 15.0 mph - N/A   Clear
11:35 PM 50.0 °F - 32.0 °F 50% 29.92 in 10.0 mi West 15.0 mph 20.7 mph N/A   Clear
11:55 PM 46.4 °F 41.5 °F 32.0 °F 57% 29.93 in 10.0 mi West 10.4 mph - N/A   Clear